Change the Weather History Date:

Thursday, April 25, 2013

  Actual Average Record
Temperature  
Mean Temperature 78 °F 77 °F  
Max Temperature 84 °F 84 °F 93 °F (1971)
Min Temperature 71 °F 70 °F 54 °F (1943)
Degree Days  
Heating Degree Days 0 0  
Month to date heating degree days 0 0  
Since 1 July heating degree days 70 127  
Cooling Degree Days 13 12  
Month to date cooling degree days 331 262  
Year to date cooling degree days 943 831  
Growing Degree Days 28 (Base 50)    
Moisture  
Dew Point 59 °F    
Average Humidity 56    
Maximum Humidity 68    
Minimum Humidity 43    
Precipitation  
Precipitation 0.00 in 0.10 in 9.34 in (1979)
Month to date precipitation 2.73 2.65  
Year to date precipitation 5.93 9.52  
Snow  
Snow 0.00 in - - ()
Month to date snowfall 0.0  
Since 1 July snowfall 0.0  
Snow Depth 0.00 in    
Sea Level Pressure  
Sea Level Pressure 30.15 in    
Wind  
Wind Speed 8 mph (ENE)    
Max Wind Speed 16 mph    
Max Gust Speed 24 mph    
Visibility 10 miles    
Events      
T = Trace of Precipitation, MM = Missing Value Source: NWS Daily Summary

Daily Weather History Graph

Daily Weather History Graph

Search for Another Location

Airport or City:

Trip Planner

Search our weather history database for the weather conditions in past years. The results will help you decide how hot, cold, wet, or windy it might be!

Date:

Astronomy

Apr. 25, 2013 Rise Set
Actual Time 6:49 AM EDT 7:49 PM EDT
Civil Twilight 6:25 AM EDT 8:13 PM EDT
Nautical Twilight 5:56 AM EDT 8:41 PM EDT
Astronomical Twilight 5:27 AM EDT 9:11 PM EDT
Moon 7:57 PM EDT (4/25) 6:30 AM EDT (4/25)
Length of Visible Light 13h 48m
Length of Day
13h 00m
Full, 100% of the Moon is Illuminated
Apr 25
Full
Apr 25
Full
May 2
Last Quarter
May 9
New
May 18
First Quarter

Hourly Weather History & Observations

Time (EDT) Temp. Heat Index Dew Point Humidity Pressure Visibility Wind Dir Wind Speed Gust Speed Precip Events Conditions
12:53 AM 75.0 °F - 61.0 °F 62% 30.13 in 10.0 mi East 10.4 mph - N/A   Clear
1:53 AM 73.9 °F - 61.0 °F 64% 30.11 in 10.0 mi East 8.1 mph - N/A   Partly Cloudy
2:53 AM 75.0 °F - 61.0 °F 62% 30.09 in 10.0 mi East 12.7 mph - N/A   Clear
3:53 AM 73.9 °F - 59.0 °F 59% 30.09 in 10.0 mi East 11.5 mph - N/A   Clear
4:53 AM 72.0 °F - 59.0 °F 64% 30.09 in 10.0 mi East 5.8 mph - N/A   Clear
5:53 AM 71.1 °F - 60.1 °F 68% 30.11 in 10.0 mi ENE 3.5 mph - N/A   Partly Cloudy
6:53 AM 72.0 °F - 60.1 °F 66% 30.13 in 10.0 mi East 8.1 mph - N/A   Partly Cloudy
7:53 AM 75.0 °F - 60.1 °F 60% 30.16 in 10.0 mi ENE 5.8 mph - N/A   Partly Cloudy
8:53 AM 78.1 °F - 60.1 °F 54% 30.16 in 10.0 mi East 8.1 mph - N/A   Partly Cloudy
9:53 AM 79.0 °F - 60.1 °F 52% 30.17 in 10.0 mi ESE 9.2 mph 17.3 mph N/A   Scattered Clouds
10:53 AM 80.1 °F 80.7 °F 59.0 °F 48% 30.19 in 10.0 mi Variable 4.6 mph - N/A   Partly Cloudy
11:53 AM 81.0 °F 81.3 °F 59.0 °F 47% 30.19 in 10.0 mi East 6.9 mph - N/A   Scattered Clouds
12:53 PM 82.0 °F 82.1 °F 59.0 °F 45% 30.18 in 10.0 mi Variable 6.9 mph - N/A   Partly Cloudy
1:53 PM 82.0 °F 81.7 °F 57.0 °F 42% 30.17 in 10.0 mi NE 12.7 mph 17.3 mph N/A   Scattered Clouds
2:53 PM 82.0 °F 82.0 °F 57.9 °F 44% 30.16 in 10.0 mi Variable 5.8 mph - N/A   Scattered Clouds
3:53 PM 82.9 °F 82.4 °F 57.0 °F 41% 30.14 in 10.0 mi ENE 9.2 mph 17.3 mph N/A   Scattered Clouds
4:53 PM 82.0 °F 81.7 °F 57.0 °F 42% 30.14 in 10.0 mi ENE 11.5 mph 20.7 mph N/A   Scattered Clouds
5:53 PM 80.1 °F 80.6 °F 57.9 °F 47% 30.14 in 10.0 mi ENE 13.8 mph 21.9 mph N/A   Scattered Clouds
6:53 PM 78.1 °F - 57.9 °F 50% 30.16 in 10.0 mi ENE 9.2 mph - N/A   Scattered Clouds
7:53 PM 75.9 °F - 57.9 °F 54% 30.16 in 10.0 mi NE 11.5 mph 17.3 mph N/A   Partly Cloudy
8:53 PM 75.0 °F - 59.0 °F 57% 30.18 in 10.0 mi NE 6.9 mph - N/A   Partly Cloudy
9:53 PM 75.0 °F - 59.0 °F 57% 30.19 in 10.0 mi NE 5.8 mph - N/A   Clear
10:53 PM 73.9 °F - 59.0 °F 59% 30.20 in 10.0 mi ENE 6.9 mph - N/A   Clear
11:53 PM 73.9 °F - 60.1 °F 62% 30.20 in 10.0 mi NE 5.8 mph - N/A   Partly Cloudy